contact:dominique.lefevre@mio.osupytheas.fr, maurice.libes@osupytheas.fr, didier.mallarino@osupytheas.fr
Project:EMSO http://www.emso-fr.org/EMSO-France
Depth: 2436.0 m
Title:EMSO Ligure Ouest : Data MII capteur CSTAR
DateTime,Latitude,Longitude,Instrument_Serial,Reference_Counts,Signal_Counts,Corrected_Signal_raw_counts,Calculated_Beam_c_inverse_meters,Internal_thermistor_counts
DateTime,Latitude,Longitude,Instrument_Serial,Reference_Counts,Signal_Counts,Corrected_Signal_raw_counts,Calculated_Beam_c_inverse_meters,Internal_thermistor_counts
2022-05-14T00:01:51,42.805,6.029,CST-1368DR,4752,5438,12201,0.987,551
2022-05-14T00:04:53,42.805,6.029,CST-1368DR,4752,5442,12211,0.984,551
2022-05-14T00:07:54,42.805,6.029,CST-1368DR,4752,5440,12205,0.986,551
2022-05-14T00:10:56,42.805,6.029,CST-1368DR,4752,5442,12211,0.984,551
2022-05-14T00:13:57,42.805,6.029,CST-1368DR,4752,5437,12200,0.987,551
2022-05-14T00:16:59,42.805,6.029,CST-1368DR,4752,5439,12204,0.986,551
2022-05-14T00:20:00,42.805,6.029,CST-1368DR,4752,5437,12200,0.987,551
2022-05-14T00:23:02,42.805,6.029,CST-1368DR,4752,5437,12200,0.987,551
2022-05-14T00:26:04,42.805,6.029,CST-1368DR,4752,5439,12204,0.986,551
2022-05-14T00:29:05,42.805,6.029,CST-1368DR,4752,5437,12199,0.988,551
2022-05-14T00:32:07,42.805,6.029,CST-1368DR,4752,5439,12204,0.986,551
2022-05-14T00:35:08,42.805,6.029,CST-1368DR,4752,5439,12204,0.986,551
2022-05-14T00:38:10,42.805,6.029,CST-1368DR,4752,5440,12206,0.985,551
2022-05-14T00:41:11,42.805,6.029,CST-1368DR,4752,5442,12211,0.984,551
2022-05-14T00:44:13,42.805,6.029,CST-1368DR,4752,5442,12210,0.984,551
2022-05-14T00:47:15,42.805,6.029,CST-1368DR,4752,5439,12205,0.986,551
2022-05-14T00:50:16,42.805,6.029,CST-1368DR,4752,5442,12210,0.984,551
2022-05-14T00:53:18,42.805,6.029,CST-1368DR,4752,5442,12210,0.984,551
2022-05-14T00:56:19,42.805,6.029,CST-1368DR,4752,5439,12205,0.986,551
2022-05-14T00:59:21,42.805,6.029,CST-1368DR,4752,5440,12207,0.985,551
2022-05-14T01:02:23,42.805,6.029,CST-1368DR,4752,5439,12203,0.986,551
2022-05-14T01:05:24,42.805,6.029,CST-1368DR,4752,5438,12202,0.987,551
2022-05-14T01:08:26,42.805,6.029,CST-1368DR,4752,5440,12205,0.986,551
2022-05-14T01:11:27,42.805,6.029,CST-1368DR,4752,5443,12212,0.984,551
2022-05-14T01:14:29,42.805,6.029,CST-1368DR,4752,5434,12192,0.990,551
2022-05-14T01:17:30,42.805,6.029,CST-1368DR,4752,5439,12204,0.986,551
2022-05-14T01:20:32,42.805,6.029,CST-1368DR,4752,5443,12213,0.983,551
2022-05-14T01:23:34,42.805,6.029,CST-1368DR,4752,5441,12209,0.984,551
2022-05-14T01:26:35,42.805,6.029,CST-1368DR,4752,5441,12208,0.985,551
2022-05-14T01:29:37,42.805,6.029,CST-1368DR,4752,5439,12204,0.986,551
2022-05-14T01:32:38,42.805,6.029,CST-1368DR,4752,5438,12202,0.987,551
2022-05-14T01:35:40,42.805,6.029,CST-1368DR,4752,5440,12207,0.985,551
2022-05-14T01:38:41,42.805,6.029,CST-1368DR,4752,5441,12207,0.985,551
2022-05-14T01:41:43,42.805,6.029,CST-1368DR,4752,5442,12210,0.984,551
2022-05-14T01:44:45,42.805,6.029,CST-1368DR,4752,5444,12215,0.983,551
2022-05-14T01:47:46,42.805,6.029,CST-1368DR,4752,5441,12207,0.985,551
2022-05-14T01:50:48,42.805,6.029,CST-1368DR,4752,5443,12213,0.983,551
2022-05-14T01:53:49,42.805,6.029,CST-1368DR,4752,5439,12205,0.986,551
2022-05-14T01:56:51,42.805,6.029,CST-1368DR,4752,5440,12206,0.985,551
2022-05-14T01:59:53,42.805,6.029,CST-1368DR,4752,5440,12207,0.985,551
2022-05-14T02:02:54,42.805,6.029,CST-1368DR,4752,5442,12211,0.984,551
2022-05-14T02:05:56,42.805,6.029,CST-1368DR,4752,5441,12208,0.985,551
2022-05-14T02:08:57,42.805,6.029,CST-1368DR,4752,5446,12219,0.981,551
2022-05-14T02:11:59,42.805,6.029,CST-1368DR,4752,5445,12217,0.982,551
2022-05-14T02:15:00,42.805,6.029,CST-1368DR,4752,5442,12211,0.984,551
2022-05-14T02:18:02,42.805,6.029,CST-1368DR,4752,5446,12220,0.981,551
2022-05-14T02:21:04,42.805,6.029,CST-1368DR,4752,5441,12209,0.984,551
2022-05-14T02:24:05,42.805,6.029,CST-1368DR,4752,5443,12213,0.983,551
2022-05-14T02:27:07,42.805,6.029,CST-1368DR,4752,5443,12213,0.983,551
2022-05-14T02:30:08,42.805,6.029,CST-1368DR,4752,5447,12222,0.980,551
2022-05-14T02:33:10,42.805,6.029,CST-1368DR,4752,5442,12210,0.984,551
2022-05-14T02:36:11,42.805,6.029,CST-1368DR,4752,5442,12211,0.984,551
2022-05-14T02:39:13,42.805,6.029,CST-1368DR,4752,5446,12219,0.981,551
2022-05-14T02:42:15,42.805,6.029,CST-1368DR,4752,5443,12212,0.984,551
2022-05-14T02:45:16,42.805,6.029,CST-1368DR,4752,5432,12188,0.991,551
2022-05-14T02:48:18,42.805,6.029,CST-1368DR,4752,5434,12192,0.990,551
2022-05-14T02:51:19,42.805,6.029,CST-1368DR,4752,5431,12186,0.992,551
2022-05-14T02:54:21,42.805,6.029,CST-1368DR,4752,5433,12190,0.991,551
2022-05-14T02:57:23,42.805,6.029,CST-1368DR,4752,5434,12193,0.990,551
2022-05-14T03:00:24,42.805,6.029,CST-1368DR,4752,5432,12188,0.991,551
2022-05-14T03:03:26,42.805,6.029,CST-1368DR,4752,5436,12198,0.988,551
2022-05-14T03:06:27,42.805,6.029,CST-1368DR,4752,5433,12191,0.990,551
2022-05-14T03:09:29,42.805,6.029,CST-1368DR,4752,5436,12197,0.988,551
2022-05-14T03:12:30,42.805,6.029,CST-1368DR,4752,5432,12188,0.991,551
2022-05-14T03:15:32,42.805,6.029,CST-1368DR,4752,5434,12192,0.990,551
2022-05-14T03:18:34,42.805,6.029,CST-1368DR,4752,5437,12200,0.987,551
2022-05-14T03:21:35,42.805,6.029,CST-1368DR,4752,5436,12196,0.989,551
2022-05-14T03:24:37,42.805,6.029,CST-1368DR,4752,5435,12195,0.989,551
2022-05-14T03:27:38,42.805,6.029,CST-1368DR,4752,5434,12192,0.990,551
2022-05-14T03:30:40,42.805,6.029,CST-1368DR,4752,5439,12203,0.986,551
2022-05-14T03:33:41,42.805,6.029,CST-1368DR,4752,5439,12204,0.986,551
2022-05-14T03:36:43,42.805,6.029,CST-1368DR,4752,5439,12203,0.986,551
2022-05-14T03:39:45,42.805,6.029,CST-1368DR,4752,5436,12197,0.988,551
2022-05-14T03:42:46,42.805,6.029,CST-1368DR,4752,5439,12205,0.986,551
2022-05-14T03:45:48,42.805,6.029,CST-1368DR,4752,5439,12204,0.986,551
2022-05-14T03:48:49,42.805,6.029,CST-1368DR,4752,5446,12219,0.981,551
2022-05-14T03:51:51,42.805,6.029,CST-1368DR,4752,5441,12209,0.984,551
2022-05-14T03:54:53,42.805,6.029,CST-1368DR,4752,5438,12201,0.987,551
2022-05-14T03:57:54,42.805,6.029,CST-1368DR,4752,5437,12200,0.987,551
2022-05-14T04:00:56,42.805,6.029,CST-1368DR,4752,5445,12217,0.982,551
2022-05-14T04:03:57,42.805,6.029,CST-1368DR,4752,5438,12202,0.987,551
2022-05-14T04:06:59,42.805,6.029,CST-1368DR,4752,5438,12202,0.987,551
2022-05-14T04:10:00,42.805,6.029,CST-1368DR,4752,5448,12223,0.980,550
2022-05-14T04:13:02,42.805,6.029,CST-1368DR,4752,5438,12201,0.987,551
2022-05-14T04:16:04,42.805,6.029,CST-1368DR,4752,5438,12202,0.987,551
2022-05-14T04:19:05,42.805,6.029,CST-1368DR,4752,5437,12200,0.987,551
2022-05-14T04:22:07,42.805,6.029,CST-1368DR,4752,5436,12196,0.989,551
2022-05-14T04:25:08,42.805,6.029,CST-1368DR,4752,5435,12195,0.989,551
2022-05-14T04:28:10,42.805,6.029,CST-1368DR,4751,5436,12200,0.987,551
2022-05-14T04:31:11,42.805,6.029,CST-1368DR,4751,5435,12198,0.988,551
2022-05-14T04:34:13,42.805,6.029,CST-1368DR,4752,5436,12197,0.988,551
2022-05-14T04:37:15,42.805,6.029,CST-1368DR,4752,5435,12194,0.989,551
2022-05-14T04:40:16,42.805,6.029,CST-1368DR,4752,5439,12205,0.986,551
2022-05-14T04:43:18,42.805,6.029,CST-1368DR,4752,5439,12203,0.986,551
2022-05-14T04:46:19,42.805,6.029,CST-1368DR,4752,5439,12203,0.986,551
2022-05-14T04:49:21,42.805,6.029,CST-1368DR,4751,5438,12204,0.986,551
2022-05-14T04:52:23,42.805,6.029,CST-1368DR,4752,5435,12195,0.989,551
2022-05-14T04:55:24,42.805,6.029,CST-1368DR,4752,5437,12199,0.988,551
2022-05-14T04:58:26,42.805,6.029,CST-1368DR,4752,5435,12195,0.989,551
2022-05-14T05:01:27,42.805,6.029,CST-1368DR,4752,5432,12189,0.991,551
2022-05-14T05:04:29,42.805,6.029,CST-1368DR,4751,5436,12199,0.988,551
2022-05-14T05:07:30,42.805,6.029,CST-1368DR,4751,5433,12194,0.989,551
2022-05-14T05:10:32,42.805,6.029,CST-1368DR,4752,5440,12207,0.985,551
2022-05-14T05:13:34,42.805,6.029,CST-1368DR,4751,5443,12214,0.983,551
2022-05-14T05:16:35,42.805,6.029,CST-1368DR,4751,5433,12193,0.990,551
2022-05-14T05:19:37,42.805,6.029,CST-1368DR,4751,5438,12204,0.986,551
2022-05-14T05:22:38,42.805,6.029,CST-1368DR,4751,5429,12185,0.992,551
2022-05-14T05:25:40,42.805,6.029,CST-1368DR,4752,5431,12186,0.992,551
2022-05-14T05:28:41,42.805,6.029,CST-1368DR,4752,5436,12196,0.989,551
2022-05-14T05:31:43,42.805,6.029,CST-1368DR,4752,5430,12184,0.993,551
2022-05-14T05:34:45,42.805,6.029,CST-1368DR,4752,5438,12201,0.987,551
2022-05-14T05:37:46,42.805,6.029,CST-1368DR,4752,5429,12181,0.994,551
2022-05-14T05:40:48,42.805,6.029,CST-1368DR,4751,5431,12189,0.991,551
2022-05-14T05:43:49,42.805,6.029,CST-1368DR,4752,5436,12198,0.988,551
2022-05-14T05:46:51,42.805,6.029,CST-1368DR,4751,5427,12179,0.994,551
2022-05-14T05:49:53,42.805,6.029,CST-1368DR,4752,5434,12192,0.990,551
2022-05-14T05:52:54,42.805,6.029,CST-1368DR,4751,5429,12185,0.992,551
2022-05-14T05:55:56,42.805,6.029,CST-1368DR,4751,5434,12196,0.989,551
2022-05-14T05:58:57,42.805,6.029,CST-1368DR,4751,5439,12207,0.985,551
2022-05-14T06:01:59,42.805,6.029,CST-1368DR,4751,5438,12204,0.986,551
2022-05-14T06:05:00,42.805,6.029,CST-1368DR,4751,5435,12197,0.988,551
2022-05-14T06:08:02,42.805,6.029,CST-1368DR,4751,5439,12205,0.986,551
2022-05-14T06:11:04,42.805,6.029,CST-1368DR,4751,5438,12203,0.986,551
2022-05-14T06:14:05,42.805,6.029,CST-1368DR,4751,5428,12182,0.993,551
2022-05-14T06:17:07,42.805,6.029,CST-1368DR,4751,5442,12213,0.983,551
2022-05-14T06:20:08,42.805,6.029,CST-1368DR,4751,5437,12203,0.986,551
2022-05-14T06:23:10,42.805,6.029,CST-1368DR,4751,5434,12194,0.989,551
2022-05-14T06:26:11,42.805,6.029,CST-1368DR,4751,5437,12202,0.987,551
2022-05-14T06:29:13,42.805,6.029,CST-1368DR,4751,5434,12196,0.989,551
2022-05-14T06:32:15,42.805,6.029,CST-1368DR,4751,5439,12206,0.985,551
2022-05-14T06:35:16,42.805,6.029,CST-1368DR,4751,5436,12200,0.987,551
2022-05-14T06:38:18,42.805,6.029,CST-1368DR,4751,5435,12196,0.989,551
2022-05-14T06:41:19,42.805,6.029,CST-1368DR,4751,5431,12189,0.991,551
2022-05-14T06:44:21,42.805,6.029,CST-1368DR,4752,5438,12202,0.987,551
2022-05-14T06:47:23,42.805,6.029,CST-1368DR,4751,5436,12199,0.988,551
2022-05-14T06:50:24,42.805,6.029,CST-1368DR,4751,5435,12198,0.988,551
2022-05-14T06:53:26,42.805,6.029,CST-1368DR,4751,5434,12194,0.989,551
2022-05-14T06:56:27,42.805,6.029,CST-1368DR,4751,5437,12202,0.987,551
2022-05-14T06:59:29,42.805,6.029,CST-1368DR,4751,5437,12202,0.987,551
2022-05-14T07:02:30,42.805,6.029,CST-1368DR,4751,5434,12196,0.989,551
2022-05-14T07:05:32,42.805,6.029,CST-1368DR,4751,5435,12198,0.988,551
2022-05-14T07:08:34,42.805,6.029,CST-1368DR,4751,5430,12186,0.992,551
2022-05-14T07:11:35,42.805,6.029,CST-1368DR,4751,5436,12200,0.987,551
2022-05-14T07:14:37,42.805,6.029,CST-1368DR,4751,5434,12196,0.989,551
2022-05-14T07:17:38,42.805,6.029,CST-1368DR,4751,5440,12209,0.984,551
2022-05-14T07:20:40,42.805,6.029,CST-1368DR,4751,5438,12203,0.986,551
2022-05-14T07:23:42,42.805,6.029,CST-1368DR,4751,5438,12205,0.986,551
2022-05-14T07:26:43,42.805,6.029,CST-1368DR,4751,5438,12203,0.986,551
2022-05-14T07:29:45,42.805,6.029,CST-1368DR,4751,5415,12152,01.003,551
2022-05-14T07:32:46,42.805,6.029,CST-1368DR,4751,5401,12120,01.014,551
2022-05-14T07:35:48,42.805,6.029,CST-1368DR,4751,5404,12127,01.011,551
2022-05-14T07:38:49,42.805,6.029,CST-1368DR,4751,5400,12118,01.014,551
2022-05-14T07:41:51,42.805,6.029,CST-1368DR,4751,5401,12121,01.013,551
2022-05-14T07:44:53,42.805,6.029,CST-1368DR,4751,5401,12120,01.014,551
2022-05-14T07:47:54,42.805,6.029,CST-1368DR,4751,5399,12116,01.015,551
2022-05-14T07:50:56,42.805,6.029,CST-1368DR,4751,5401,12121,01.013,551
2022-05-14T07:53:57,42.805,6.029,CST-1368DR,4751,5400,12118,01.014,551
2022-05-14T07:56:59,42.805,6.029,CST-1368DR,4751,5396,12109,01.017,551
2022-05-14T08:00:00,42.805,6.029,CST-1368DR,4751,5400,12120,01.014,551
2022-05-14T08:03:02,42.805,6.029,CST-1368DR,4751,5394,12106,01.018,551
2022-05-14T08:06:04,42.805,6.029,CST-1368DR,4751,5393,12104,01.019,551
2022-05-14T08:09:05,42.805,6.029,CST-1368DR,4751,5400,12119,01.014,551
2022-05-14T08:12:07,42.805,6.029,CST-1368DR,4751,5400,12118,01.014,551
2022-05-14T08:15:08,42.805,6.029,CST-1368DR,4751,5399,12116,01.015,551
2022-05-14T08:18:10,42.805,6.029,CST-1368DR,4751,5401,12120,01.014,551
2022-05-14T08:21:12,42.805,6.029,CST-1368DR,4751,5398,12115,01.015,551
2022-05-14T08:24:13,42.805,6.029,CST-1368DR,4751,5401,12121,01.013,551
2022-05-14T08:27:15,42.805,6.029,CST-1368DR,4751,5397,12113,01.016,551
2022-05-14T08:30:16,42.805,6.029,CST-1368DR,4751,5400,12119,01.014,551
2022-05-14T08:33:18,42.805,6.029,CST-1368DR,4751,5401,12121,01.013,551
2022-05-14T08:36:19,42.805,6.029,CST-1368DR,4751,5401,12121,01.013,551
2022-05-14T08:39:21,42.805,6.029,CST-1368DR,4751,5399,12116,01.015,551
2022-05-14T08:42:23,42.805,6.029,CST-1368DR,4751,5403,12125,01.012,551
2022-05-14T08:45:24,42.805,6.029,CST-1368DR,4751,5404,12127,01.011,551
2022-05-14T08:48:26,42.805,6.029,CST-1368DR,4751,5400,12118,01.014,551
2022-05-14T08:51:27,42.805,6.029,CST-1368DR,4751,5399,12117,01.015,551
2022-05-14T08:54:29,42.805,6.029,CST-1368DR,4751,5399,12116,01.015,551
2022-05-14T08:57:31,42.805,6.029,CST-1368DR,4751,5403,12125,01.012,551
2022-05-14T09:00:32,42.805,6.029,CST-1368DR,4751,5401,12122,01.013,551
2022-05-14T09:03:34,42.805,6.029,CST-1368DR,4751,5401,12122,01.013,551
2022-05-14T09:06:35,42.805,6.029,CST-1368DR,4751,5405,12130,01.010,551
2022-05-14T09:09:37,42.805,6.029,CST-1368DR,4751,5401,12120,01.014,551
2022-05-14T09:12:38,42.805,6.029,CST-1368DR,4751,5401,12121,01.013,551
2022-05-14T09:15:40,42.805,6.029,CST-1368DR,4751,5401,12121,01.013,551
2022-05-14T09:18:42,42.805,6.029,CST-1368DR,4751,5406,12131,01.010,551
2022-05-14T09:21:43,42.805,6.029,CST-1368DR,4751,5403,12125,01.012,551
2022-05-14T09:24:45,42.805,6.029,CST-1368DR,4751,5406,12132,01.010,551
2022-05-14T09:27:46,42.805,6.029,CST-1368DR,4751,5404,12127,01.011,551
2022-05-14T09:30:48,42.805,6.029,CST-1368DR,4751,5404,12127,01.011,551
2022-05-14T09:33:49,42.805,6.029,CST-1368DR,4751,5407,12134,01.009,551
2022-05-14T09:36:51,42.805,6.029,CST-1368DR,4751,5405,12130,01.010,551
2022-05-14T09:39:53,42.805,6.029,CST-1368DR,4751,5401,12122,01.013,551
2022-05-14T09:42:54,42.805,6.029,CST-1368DR,4751,5402,12123,01.013,551
2022-05-14T09:45:56,42.805,6.029,CST-1368DR,4751,5402,12124,01.012,551
2022-05-14T09:48:57,42.805,6.029,CST-1368DR,4751,5401,12121,01.013,551
2022-05-14T09:51:59,42.805,6.029,CST-1368DR,4751,5404,12129,01.011,551
2022-05-14T09:55:01,42.805,6.029,CST-1368DR,4751,5401,12120,01.014,551
2022-05-14T09:58:02,42.805,6.029,CST-1368DR,4751,5400,12120,01.014,551
2022-05-14T10:01:04,42.805,6.029,CST-1368DR,4751,5402,12122,01.013,551
2022-05-14T10:04:05,42.805,6.029,CST-1368DR,4751,5405,12129,01.011,551
2022-05-14T10:07:07,42.805,6.029,CST-1368DR,4751,5404,12128,01.011,551
2022-05-14T10:10:08,42.805,6.029,CST-1368DR,4751,5402,12124,01.012,551
2022-05-14T10:13:10,42.805,6.029,CST-1368DR,4751,5406,12132,01.010,551
2022-05-14T10:16:12,42.805,6.029,CST-1368DR,4751,5400,12118,01.014,551
2022-05-14T10:19:13,42.805,6.029,CST-1368DR,4751,5399,12117,01.015,551
2022-05-14T10:22:15,42.805,6.029,CST-1368DR,4751,5400,12118,01.014,551
2022-05-14T10:25:16,42.805,6.029,CST-1368DR,4751,5400,12118,01.014,551
2022-05-14T10:28:18,42.805,6.029,CST-1368DR,4751,5401,12121,01.013,551
2022-05-14T10:31:20,42.805,6.029,CST-1368DR,4751,5405,12130,01.010,551
2022-05-14T10:34:21,42.805,6.029,CST-1368DR,4751,5402,12122,01.013,551
2022-05-14T10:37:23,42.805,6.029,CST-1368DR,4751,5401,12122,01.013,551
2022-05-14T10:40:24,42.805,6.029,CST-1368DR,4751,5408,12138,01.008,551
2022-05-14T10:43:26,42.805,6.029,CST-1368DR,4751,5402,12124,01.012,551
2022-05-14T10:46:27,42.805,6.029,CST-1368DR,4751,5397,12112,01.016,551
2022-05-14T10:49:29,42.805,6.029,CST-1368DR,4751,5402,12123,01.013,551
2022-05-14T10:52:31,42.805,6.029,CST-1368DR,4751,5398,12114,01.016,551
2022-05-14T10:55:32,42.805,6.029,CST-1368DR,4751,5402,12124,01.012,551
2022-05-14T10:58:34,42.805,6.029,CST-1368DR,4751,5410,12141,01.007,551
2022-05-14T11:01:35,42.805,6.029,CST-1368DR,4751,5401,12121,01.013,551
2022-05-14T11:04:37,42.805,6.029,CST-1368DR,4751,5403,12126,01.012,551
2022-05-14T11:07:38,42.805,6.029,CST-1368DR,4751,5402,12124,01.012,551
2022-05-14T11:10:40,42.805,6.029,CST-1368DR,4751,5403,12125,01.012,551
2022-05-14T11:13:42,42.805,6.029,CST-1368DR,4751,5400,12118,01.014,551
2022-05-14T11:16:43,42.805,6.029,CST-1368DR,4751,5401,12122,01.013,551
2022-05-14T11:19:45,42.805,6.029,CST-1368DR,4751,5403,12125,01.012,551
2022-05-14T11:22:46,42.805,6.029,CST-1368DR,4751,5399,12117,01.015,551
2022-05-14T11:25:48,42.805,6.029,CST-1368DR,4751,5403,12126,01.012,551
2022-05-14T11:28:50,42.805,6.029,CST-1368DR,4751,5394,12106,01.018,551
2022-05-14T11:31:51,42.805,6.029,CST-1368DR,4751,5403,12126,01.012,551
2022-05-14T11:34:53,42.805,6.029,CST-1368DR,4751,5403,12126,01.012,551
2022-05-14T11:37:54,42.805,6.029,CST-1368DR,4751,5397,12112,01.016,551
2022-05-14T11:40:56,42.805,6.029,CST-1368DR,4751,5395,12107,01.018,551
2022-05-14T11:43:57,42.805,6.029,CST-1368DR,4751,5401,12122,01.013,551
2022-05-14T11:46:59,42.805,6.029,CST-1368DR,4751,5402,12123,01.013,551
2022-05-14T11:50:01,42.805,6.029,CST-1368DR,4751,5408,12136,01.008,551
2022-05-14T11:53:02,42.805,6.029,CST-1368DR,4751,5398,12115,01.015,551
2022-05-14T11:56:04,42.805,6.029,CST-1368DR,4751,5398,12115,01.015,551
2022-05-14T11:59:05,42.805,6.029,CST-1368DR,4751,5399,12117,01.015,551
2022-05-14T12:02:07,42.805,6.029,CST-1368DR,4751,5396,12109,01.017,551
2022-05-14T12:05:08,42.805,6.029,CST-1368DR,4751,5397,12112,01.016,551
2022-05-14T12:08:10,42.805,6.029,CST-1368DR,4751,5398,12115,01.015,551
2022-05-14T12:11:12,42.805,6.029,CST-1368DR,4751,5398,12113,01.016,551
2022-05-14T12:14:13,42.805,6.029,CST-1368DR,4751,5401,12122,01.013,551
2022-05-14T12:17:15,42.805,6.029,CST-1368DR,4751,5396,12109,01.017,550
2022-05-14T12:20:16,42.805,6.029,CST-1368DR,4751,5407,12135,01.009,551
2022-05-14T12:23:18,42.805,6.029,CST-1368DR,4751,5402,12124,01.012,551
2022-05-14T12:26:20,42.805,6.029,CST-1368DR,4751,5404,12129,01.011,551
2022-05-14T12:29:21,42.805,6.029,CST-1368DR,4751,5405,12129,01.011,551
2022-05-14T12:32:23,42.805,6.029,CST-1368DR,4751,5408,12137,01.008,551
2022-05-14T12:35:24,42.805,6.029,CST-1368DR,4751,5403,12126,01.012,551
2022-05-14T12:38:26,42.805,6.029,CST-1368DR,4751,5407,12135,01.009,551
2022-05-14T12:41:27,42.805,6.029,CST-1368DR,4751,5402,12122,01.013,551
2022-05-14T12:44:29,42.805,6.029,CST-1368DR,4751,5395,12108,01.018,551
2022-05-14T12:47:31,42.805,6.029,CST-1368DR,4751,5402,12122,01.013,551
2022-05-14T12:50:32,42.805,6.029,CST-1368DR,4751,5400,12118,01.014,551
2022-05-14T12:53:34,42.805,6.029,CST-1368DR,4750,5260,11807,01.118,551
2022-05-14T12:56:35,42.805,6.029,CST-1368DR,4750,5293,11882,01.093,551
2022-05-14T12:59:37,42.805,6.029,CST-1368DR,4750,5290,11873,01.096,551
2022-05-14T13:02:38,42.805,6.029,CST-1368DR,4750,5284,11862,01.100,551
2022-05-14T13:05:40,42.805,6.029,CST-1368DR,4750,5281,11854,01.103,551
2022-05-14T13:08:42,42.805,6.029,CST-1368DR,4750,5305,11908,01.084,551
2022-05-14T13:11:43,42.805,6.029,CST-1368DR,4750,5315,11930,01.077,551
2022-05-14T13:14:45,42.805,6.029,CST-1368DR,4750,5313,11925,01.079,551
2022-05-14T13:17:46,42.805,6.029,CST-1368DR,4750,5321,11944,01.072,551
2022-05-14T13:20:48,42.805,6.029,CST-1368DR,4750,5319,11940,01.074,551
2022-05-14T13:23:50,42.805,6.029,CST-1368DR,4750,5312,11924,01.079,551
2022-05-14T13:26:51,42.805,6.029,CST-1368DR,4750,5311,11922,01.080,551
2022-05-14T13:29:53,42.805,6.029,CST-1368DR,4750,5314,11927,01.078,551
2022-05-14T13:32:54,42.805,6.029,CST-1368DR,4750,5321,11944,01.072,551
2022-05-14T13:35:56,42.805,6.029,CST-1368DR,4750,5316,11932,01.076,551
2022-05-14T13:38:57,42.805,6.029,CST-1368DR,4750,5317,11936,01.075,551
2022-05-14T13:41:59,42.805,6.029,CST-1368DR,4750,5311,11922,01.080,551
2022-05-14T13:45:01,42.805,6.029,CST-1368DR,4750,5318,11936,01.075,551
2022-05-14T13:48:02,42.805,6.029,CST-1368DR,4750,5379,12073,01.029,551
2022-05-14T13:51:04,42.805,6.029,CST-1368DR,4750,5357,12024,01.046,551
2022-05-14T13:54:05,42.805,6.029,CST-1368DR,4750,5388,12093,01.023,551
2022-05-14T13:57:07,42.805,6.029,CST-1368DR,4750,5341,11989,01.057,551
2022-05-14T14:00:08,42.805,6.029,CST-1368DR,4750,5365,12042,01.040,551
2022-05-14T14:03:10,42.805,6.029,CST-1368DR,4750,5382,12081,01.027,551
2022-05-14T14:06:12,42.805,6.029,CST-1368DR,4750,5377,12070,01.030,551
2022-05-14T14:09:13,42.805,6.029,CST-1368DR,4750,5359,12029,01.044,551
2022-05-14T14:12:15,42.805,6.029,CST-1368DR,4750,5396,12111,01.017,551
2022-05-14T14:15:16,42.805,6.029,CST-1368DR,4750,5349,12007,01.051,551
2022-05-14T14:18:18,42.805,6.029,CST-1368DR,4750,5376,12068,01.031,550
2022-05-14T14:21:20,42.805,6.029,CST-1368DR,4750,5377,12070,01.030,551
2022-05-14T14:24:21,42.805,6.029,CST-1368DR,4750,5345,11998,01.054,551
2022-05-14T14:27:23,42.805,6.029,CST-1368DR,4750,5365,12043,01.039,551
2022-05-14T14:30:24,42.805,6.029,CST-1368DR,4750,5377,12069,01.031,551
2022-05-14T14:33:26,42.805,6.029,CST-1368DR,4750,5383,12084,01.026,551
2022-05-14T14:36:27,42.805,6.029,CST-1368DR,4750,5371,12056,01.035,551
2022-05-14T14:39:29,42.805,6.029,CST-1368DR,4750,5365,12042,01.040,551
2022-05-14T14:42:31,42.805,6.029,CST-1368DR,4750,5369,12052,01.036,551
2022-05-14T14:45:32,42.805,6.029,CST-1368DR,4750,5376,12068,01.031,551
2022-05-14T14:48:34,42.805,6.029,CST-1368DR,4750,5358,12027,01.045,551
2022-05-14T14:51:35,42.805,6.029,CST-1368DR,4750,5368,12049,01.037,551
2022-05-14T14:54:37,42.805,6.029,CST-1368DR,4750,5332,11969,01.064,551
2022-05-14T14:57:39,42.805,6.029,CST-1368DR,4750,5366,12045,01.039,551
2022-05-14T15:00:40,42.805,6.029,CST-1368DR,4750,5358,12028,01.044,551
2022-05-14T15:03:42,42.805,6.029,CST-1368DR,4750,5355,12020,01.047,551
2022-05-14T15:06:43,42.805,6.029,CST-1368DR,4750,5363,12037,01.041,551
2022-05-14T15:09:45,42.805,6.029,CST-1368DR,4750,5374,12063,01.033,551
2022-05-14T15:12:46,42.805,6.029,CST-1368DR,4750,5368,12050,01.037,551
2022-05-14T15:15:48,42.805,6.029,CST-1368DR,4750,5365,12042,01.040,551
2022-05-14T15:18:50,42.805,6.029,CST-1368DR,4750,5359,12030,01.044,551
2022-05-14T15:21:51,42.805,6.029,CST-1368DR,4750,5360,12031,01.043,551
2022-05-14T15:24:53,42.805,6.029,CST-1368DR,4750,5367,12048,01.038,551
2022-05-14T15:27:54,42.805,6.029,CST-1368DR,4750,5358,12027,01.045,551
2022-05-14T15:30:56,42.805,6.029,CST-1368DR,4750,5360,12031,01.043,551
2022-05-14T15:33:57,42.805,6.029,CST-1368DR,4750,5370,12053,01.036,551
2022-05-14T15:36:59,42.805,6.029,CST-1368DR,4750,5367,12046,01.038,551
2022-05-14T15:40:01,42.805,6.029,CST-1368DR,4750,5367,12047,01.038,551
2022-05-14T15:43:02,42.805,6.029,CST-1368DR,4750,5351,12010,01.050,551
2022-05-14T15:46:04,42.805,6.029,CST-1368DR,4750,5369,12051,01.037,551
2022-05-14T15:49:05,42.805,6.029,CST-1368DR,4750,5352,12013,01.049,551
2022-05-14T15:52:07,42.805,6.029,CST-1368DR,4750,5358,12028,01.044,551
2022-05-14T15:55:09,42.805,6.029,CST-1368DR,4750,5362,12036,01.042,551
2022-05-14T15:58:10,42.805,6.029,CST-1368DR,4750,5357,12024,01.046,551
2022-05-14T16:01:12,42.805,6.029,CST-1368DR,4750,5367,12047,01.038,551
2022-05-14T16:04:13,42.805,6.029,CST-1368DR,4750,5373,12061,01.033,551
2022-05-14T16:07:15,42.805,6.029,CST-1368DR,4750,5344,11995,01.055,551
2022-05-14T16:10:16,42.805,6.029,CST-1368DR,4750,5355,12020,01.047,551
2022-05-14T16:13:18,42.805,6.029,CST-1368DR,4750,5321,11944,01.072,551
2022-05-14T16:16:20,42.805,6.029,CST-1368DR,4750,5349,12008,01.051,551
2022-05-14T16:19:21,42.805,6.029,CST-1368DR,4750,5374,12063,01.033,551
2022-05-14T16:22:23,42.805,6.029,CST-1368DR,4750,5367,12047,01.038,551
2022-05-14T16:25:24,42.805,6.029,CST-1368DR,4750,5332,11969,01.064,551
2022-05-14T16:28:26,42.805,6.029,CST-1368DR,4750,5366,12046,01.038,551
2022-05-14T16:31:27,42.805,6.029,CST-1368DR,4750,5376,12068,01.031,551
2022-05-14T16:34:29,42.805,6.029,CST-1368DR,4750,5376,12066,01.032,551
2022-05-14T16:37:31,42.805,6.029,CST-1368DR,4750,5366,12045,01.039,551
2022-05-14T16:40:32,42.805,6.029,CST-1368DR,4750,5374,12063,01.033,551
2022-05-14T16:43:34,42.805,6.029,CST-1368DR,4750,5351,12010,01.050,551